Blackhawk

United States     34˚20′39″N   116˚49′12″W
temp.,
°C
wind,
m/s
gust,
m/s
humid.,
%
clouds,
%
prec.,
mm/h
press.,
hPa
HPBL,
m
29 november, sun
sun2901:00−1˚nne12360 0.0 102022
04:00−1˚nnw12210 0.0 102122
07:00−1˚nne12250 0.0 102222
10:00+10˚ene22140 0.0 1023253
13:00+11˚ene22140 0.0 1020468
16:00+8˚nne11270 0.0 102074
19:00+2˚se00390 0.0 102122
22:00+2˚ene113133 0.0 102122
30 november, mon
mon3001:00+1˚ene0146100 0.0 102122
04:00+2˚se0023100 0.0 102122
07:00+2˚se1223100 0.0 102222
10:00+12˚ese221375 0.0 1023439
13:00+12˚nne22160 0.0 1020621
16:00+9˚nne11270 0.0 101951
19:00+4˚wnw22240 0.0 102022
22:00+3˚nw23200 0.0 102022
1 december, tue
tue101:00+2˚nw12400 0.0 102022
04:00+2˚wnw12410 0.0 101922
07:00+2˚nnw12210 0.0 101922
10:00+12˚ne21120 0.0 1020277
13:00+13˚ne22140 0.0 1018445
16:00+9˚ene12250 0.0 101782
19:00+4˚n11270 0.0 101922
22:00+3˚nw12250 0.0 101922
2 december, wed
wed201:00+3˚nw22290 0.0 101922
04:00+2˚nw22340 0.0 101822
07:00+3˚nw23281 0.0 101922
10:00+11˚n22151 0.0 1020325
13:00+12˚nnw23165 0.0 1016529
16:00+10˚nnw222313 0.0 101578
19:00+5˚wnw23260 0.0 101622
22:00+3˚nnw23260 0.0 101624
3 december, thu
thu301:00+2˚nne23260 0.0 101725
04:00ene23270 0.0 102023
07:00−1˚ene23310 0.0 102330
10:00+6˚e55190 0.0 1024326
13:00+5˚e66140 0.0 1022416
16:00+2˚e45200 0.0 1022268
19:00−1˚ese34200 0.0 102439
22:00−1˚ese55200 0.0 102650